This is the latest recevied weather packets stored in our database for station/object JA3QOS-13. If no packets are shown the sender has not sent any weather packets the latest 10 day(s).
| Time | Temp. | Humidity | Pressure | Rain* | Wind** | Luminosity | Snow |
|---|---|---|---|---|---|---|---|
| 1777626004 | 10.56° C | 92% | 1001.7 hPa | 0 mm | - | - | - |
| 1777624203 | 10.56° C | 91% | 1001.5 hPa | 0 mm | - | - | - |
| 1777622404 | 11.11° C | 89% | 1001.2 hPa | 0 mm | - | - | - |
| 1777620604 | 12.22° C | 85% | 1000.4 hPa | 0 mm | - | - | - |
| 1777618805 | 12.22° C | 82% | 1000.4 hPa | 0 mm | - | - | - |
| 1777617004 | 13.33° C | 83% | 1000.9 hPa | 0 mm | - | - | - |
| 1777615204 | 15° C | 79% | 1000.7 hPa | 0 mm | - | - | - |
| 1777613404 | 13.89° C | 81% | 1000.5 hPa | 0 mm | - | - | - |
| 1777611604 | 14.44° C | 88% | 1001 hPa | 0 mm | - | - | - |
| 1777609804 | 13.89° C | 90% | 1001.1 hPa | 0 mm | - | - | - |
| 1777608004 | 14.44° C | 98% | 1001.3 hPa | 0 mm | - | - | - |
| 1777606204 | 13.89° C | 99% | 1001.7 hPa | 0 mm | - | - | - |
| 1777604404 | 13.33° C | 99% | 1001.9 hPa | 0 mm | - | - | - |
| 1777602604 | 12.78° C | 99% | 1002.3 hPa | 0 mm | - | - | - |
| 1777600804 | 12.22° C | 99% | 1002.7 hPa | 0 mm | - | - | - |
| 1777599004 | 12.22° C | 99% | 1002.8 hPa | 0 mm | - | - | - |
| 1777597204 | 12.78° C | 99% | 1002.7 hPa | 0.51 mm | - | - | - |
| 1777595404 | 13.89° C | 99% | 1002.8 hPa | 1.27 mm | - | - | - |
| 1777593610 | 13.33° C | 99% | 1002.9 hPa | 4.57 mm | - | - | - |
| 1777591803 | 13.33° C | 99% | 1002.4 hPa | 6.6 mm | - | - | - |
| 1777590004 | 13.33° C | 99% | 1002.1 hPa | 4.83 mm | - | - | - |
| 1777588204 | 12.78° C | 99% | 1002.6 hPa | 2.03 mm | - | - | - |
| 1777586404 | 12.78° C | 99% | 1003.1 hPa | 0.51 mm | - | - | - |
| 1777584604 | 12.78° C | 99% | 1003.1 hPa | 1.78 mm | - | - | - |
| 1777582803 | 12.78° C | 99% | 1004 hPa | 3.3 mm | - | - | - |
* Rain latest hour (hover to see other rain measurements)
** Current wind speed in m/s (hover to see current wind gust speed)